Change the Weather History Date:

Friday, August 2, 2013

  Actual Average (KCSM) Record (KCSM)
Temperature  
Mean Temperature 86 °F -  
Max Temperature 100 °F 94 °F 111 °F (2012)
Min Temperature 73 °F 70 °F 64 °F (2000)
Cooling Degree Days 22    
Growing Degree Days 36 (Base 50)    
Moisture  
Dew Point 60 °F    
Average Humidity 47    
Maximum Humidity 83    
Minimum Humidity 18    
Precipitation  
Precipitation 0.00 in - - ()
Sea Level Pressure  
Sea Level Pressure 29.89 in    
Wind  
Wind Speed 10 mph (South)    
Max Wind Speed 17 mph    
Max Gust Speed 24 mph    
Visibility 10 miles    
Events      
Averages and records for this station are not official NWS values.
T = Trace of Precipitation, MM = Missing Value Source: NWS Daily Summary

Daily Weather History Graph

Daily Weather History Graph

Search for Another Location

Airport or City:

Trip Planner

Search our weather history database for the weather conditions in past years. The results will help you decide how hot, cold, wet, or windy it might be!

Date:

Astronomy

Aug. 02, 2013 Rise Set
Actual Time 6:45 AM CDT 8:38 PM CDT
Civil Twilight 6:17 AM CDT 9:06 PM CDT
Nautical Twilight 5:43 AM CDT 9:40 PM CDT
Astronomical Twilight 5:06 AM CDT 10:16 PM CDT
Moon 3:08 AM CDT (8/2) 5:35 PM CDT (8/2)
Length of Visible Light 14h 49m
Length of Day
13h 53m
Waning Crescent, 15% of the Moon is Illuminated
Aug 2
Waning Crescent
Aug 6
New
Aug 14
First Quarter
Aug 20
Full
Aug 28
Last Quarter

Hourly Weather History & Observations

Time (CDT) Temp. Heat Index Dew Point Humidity Pressure Visibility Wind Dir Wind Speed Gust Speed Precip Events Conditions
12:15 AM 78.8 °F - 68.0 °F 69% 29.99 in 10.0 mi SSE 8.1 mph - N/A   Unknown
12:35 AM 78.8 °F - 68.0 °F 69% 29.99 in 10.0 mi SSE 9.2 mph - N/A   Unknown
12:55 AM 77.0 °F - 68.0 °F 74% 29.99 in 10.0 mi SSE 6.9 mph - N/A   Unknown
1:15 AM 77.0 °F - 68.0 °F 74% 29.98 in 10.0 mi SSE 8.1 mph - N/A   Unknown
1:35 AM 77.0 °F - 68.0 °F 74% 29.97 in 10.0 mi SSE 9.2 mph - N/A   Unknown
1:55 AM 77.0 °F - 68.0 °F 74% 29.96 in 10.0 mi SSE 12.7 mph - N/A   Unknown
2:15 AM 77.0 °F - 68.0 °F 74% 29.94 in 10.0 mi SSE 10.4 mph - N/A   Unknown
2:35 AM 77.0 °F - 68.0 °F 74% 29.93 in 10.0 mi SSE 10.4 mph - N/A   Unknown
2:55 AM 77.0 °F - 68.0 °F 74% 29.92 in 10.0 mi SSE 11.5 mph - N/A   Unknown
3:15 AM 77.0 °F - 68.0 °F 74% 29.93 in 10.0 mi South 10.4 mph - N/A   Unknown
3:35 AM 77.0 °F - 68.0 °F 74% 29.93 in 10.0 mi SSE 10.4 mph - N/A   Unknown
3:55 AM 77.0 °F - 68.0 °F 74% 29.93 in 10.0 mi SSE 9.2 mph - N/A   Unknown
4:15 AM 75.2 °F - 68.0 °F 78% 29.93 in 10.0 mi SSE 9.2 mph - N/A   Unknown
4:35 AM 75.2 °F - 68.0 °F 78% 29.93 in 10.0 mi SSE 9.2 mph - N/A   Unknown
4:55 AM 75.2 °F - 68.0 °F 78% 29.92 in 10.0 mi SSE 9.2 mph - N/A   Unknown
5:15 AM 75.2 °F - 68.0 °F 78% 29.92 in 10.0 mi SSE 8.1 mph - N/A   Unknown
5:35 AM 75.2 °F - 68.0 °F 78% 29.92 in 10.0 mi SSE 6.9 mph - N/A   Unknown
5:55 AM 75.2 °F - 68.0 °F 78% 29.92 in 10.0 mi SSE 5.8 mph - N/A   Unknown
6:15 AM 75.2 °F - 68.0 °F 78% 29.91 in 10.0 mi SSE 8.1 mph - N/A   Unknown
6:35 AM 73.4 °F - 68.0 °F 83% 29.91 in 10.0 mi SSE 8.1 mph - N/A   Unknown
6:55 AM 73.4 °F - 68.0 °F 83% 29.91 in 10.0 mi SSE 9.2 mph - N/A   Unknown
7:15 AM 73.4 °F - 68.0 °F 83% 29.91 in 10.0 mi SSE 9.2 mph - N/A   Unknown
7:35 AM 73.4 °F - 68.0 °F 83% 29.91 in 10.0 mi SSE 6.9 mph - N/A   Unknown
7:55 AM 75.2 °F - 68.0 °F 78% 29.91 in 10.0 mi SSE 8.1 mph - N/A   Unknown
8:15 AM 77.0 °F - 68.0 °F 74% 29.91 in 10.0 mi SSE 9.2 mph - N/A   Unknown
8:35 AM 77.0 °F - 68.0 °F 74% 29.91 in 10.0 mi South 9.2 mph - N/A   Unknown
8:55 AM 78.8 °F - 68.0 °F 69% 29.91 in 10.0 mi South 6.9 mph - N/A   Unknown
9:15 AM 80.6 °F 83.2 °F 68.0 °F 65% 29.91 in 10.0 mi South 10.4 mph - N/A   Unknown
9:35 AM 82.4 °F 85.4 °F 68.0 °F 62% 29.91 in 10.0 mi South 11.5 mph - N/A   Unknown
9:55 AM 86.0 °F 89.4 °F 68.0 °F 55% 29.90 in 10.0 mi South 13.8 mph - N/A   Unknown
10:15 AM 86.0 °F 88.2 °F 66.2 °F 51% 29.90 in 10.0 mi South 10.4 mph - N/A   Unknown
10:35 AM 87.8 °F 89.4 °F 64.4 °F 46% 29.91 in 10.0 mi South 10.4 mph - N/A   Unknown
10:55 AM 89.6 °F 90.1 °F 62.6 °F 40% 29.91 in 10.0 mi SSW 11.5 mph - N/A   Unknown
11:15 AM 91.4 °F 91.4 °F 60.8 °F 36% 29.91 in 10.0 mi SSW 12.7 mph - N/A   Unknown
11:35 AM 93.2 °F 93.3 °F 60.8 °F 34% 29.91 in 10.0 mi SSW 15.0 mph - N/A   Unknown
11:55 AM 95.0 °F 94.4 °F 59.0 °F 30% 29.91 in 10.0 mi SSW 13.8 mph 18.4 mph N/A   Unknown
12:15 PM 95.0 °F 93.7 °F 57.2 °F 28% 29.90 in 10.0 mi SW 15.0 mph 21.9 mph N/A   Unknown
12:35 PM 96.8 °F 95.1 °F 55.4 °F 25% 29.90 in 10.0 mi SW 15.0 mph 20.7 mph N/A   Unknown
12:55 PM 96.8 °F 95.1 °F 55.4 °F 25% 29.89 in 10.0 mi SW 12.7 mph 21.9 mph N/A   Unknown
1:15 PM 98.6 °F 97.2 °F 55.4 °F 24% 29.88 in 10.0 mi SW 13.8 mph 24.2 mph N/A   Unknown
1:35 PM 98.6 °F 96.4 °F 53.6 °F 22% 29.88 in 10.0 mi WSW 16.1 mph - N/A   Unknown
1:55 PM 98.6 °F 96.4 °F 53.6 °F 22% 29.88 in 10.0 mi SW 13.8 mph 21.9 mph N/A   Unknown
2:15 PM 98.6 °F 96.4 °F 53.6 °F 22% 29.87 in 10.0 mi SW 13.8 mph 18.4 mph N/A   Unknown
2:35 PM 100.4 °F - 51.8 °F 20% 29.86 in 10.0 mi WSW 15.0 mph 23.0 mph N/A   Unknown
2:55 PM 100.4 °F - 51.8 °F 20% 29.86 in 10.0 mi SW 13.8 mph 24.2 mph N/A   Unknown
3:15 PM 100.4 °F - 51.8 °F 20% 29.85 in 10.0 mi SW 13.8 mph - N/A   Unknown
3:35 PM 100.4 °F - 51.8 °F 20% 29.85 in 10.0 mi SW 12.7 mph 23.0 mph N/A   Unknown
3:55 PM 100.4 °F - 50.0 °F 18% 29.84 in 10.0 mi SW 10.4 mph 17.3 mph N/A   Unknown
4:15 PM 100.4 °F - 50.0 °F 18% 29.83 in 10.0 mi SSW 17.3 mph 21.9 mph N/A   Unknown
4:35 PM 100.4 °F - 50.0 °F 18% 29.83 in 10.0 mi SW 10.4 mph 19.6 mph N/A   Unknown
4:55 PM 100.4 °F - 50.0 °F 18% 29.83 in 10.0 mi South 13.8 mph 20.7 mph N/A   Unknown
5:15 PM 98.6 °F - 48.2 °F 18% 29.83 in 10.0 mi SSW 12.7 mph - N/A   Unknown
5:35 PM 100.4 °F - 50.0 °F 18% 29.82 in 10.0 mi SSW 12.7 mph 18.4 mph N/A   Unknown
5:55 PM 100.4 °F - 50.0 °F 18% 29.82 in 10.0 mi SSW 9.2 mph 21.9 mph N/A   Unknown
6:15 PM 100.4 °F - 50.0 °F 18% 29.82 in 10.0 mi SSW 16.1 mph 19.6 mph N/A   Unknown
6:35 PM 100.4 °F - 50.0 °F 18% 29.81 in 10.0 mi SSW 13.8 mph 17.3 mph N/A   Unknown
6:55 PM 98.6 °F - 50.0 °F 19% 29.81 in 10.0 mi South 15.0 mph 20.7 mph N/A   Unknown
7:15 PM 98.6 °F - 50.0 °F 19% 29.81 in 10.0 mi SSW 13.8 mph 19.6 mph N/A   Unknown
7:35 PM 96.8 °F - 51.8 °F 22% 29.81 in 10.0 mi South 12.7 mph 18.4 mph N/A   Unknown
7:55 PM 96.8 °F - 51.8 °F 22% 29.81 in 10.0 mi South 13.8 mph - N/A   Unknown
8:15 PM 95.0 °F - 51.8 °F 23% 29.82 in 10.0 mi South 15.0 mph - N/A   Unknown
8:35 PM 93.2 °F - 51.8 °F 24% 29.83 in 10.0 mi South 13.8 mph 21.9 mph N/A   Unknown
8:55 PM 91.4 °F - 51.8 °F 26% 29.83 in 10.0 mi South 11.5 mph - N/A   Unknown
9:15 PM 91.4 °F - 51.8 °F 26% 29.84 in 10.0 mi South 12.7 mph - N/A   Unknown
9:35 PM 89.6 °F 87.3 °F 53.6 °F 29% 29.84 in 10.0 mi SSE 10.4 mph - N/A   Unknown
9:55 PM 89.6 °F 87.7 °F 55.4 °F 31% 29.85 in 10.0 mi SSE 10.4 mph - N/A   Unknown
10:15 PM 87.8 °F 86.1 °F 55.4 °F 33% 29.86 in 10.0 mi SSE 11.5 mph - N/A   Unknown
10:35 PM 86.0 °F 84.9 °F 57.2 °F 37% 29.86 in 10.0 mi SSE 10.4 mph - N/A   Unknown
10:55 PM 86.0 °F 85.4 °F 59.0 °F 40% 29.86 in 10.0 mi SSE 11.5 mph - N/A   Unknown
11:15 PM 84.2 °F 83.8 °F 59.0 °F 42% 29.86 in 10.0 mi SSE 11.5 mph - N/A   Unknown
11:35 PM 82.4 °F 82.5 °F 59.0 °F 45% 29.86 in 10.0 mi SSE 11.5 mph - N/A   Unknown
11:55 PM 82.4 °F 82.5 °F 59.0 °F 45% 29.88 in 10.0 mi SSE 11.5 mph - N/A   Unknown